COSMOS 2190

Satellite information

Favourite Embed

Satellite Type and Status

PAYLOADIN ORBIT

Key statistics

Satellite COSMOS 2190 at a glance.

Uptime

12204

Days in orbit

Revolutions

≈ 12.5

Per day

Orbit

LEO

Low Earth Orbit

Inclination

74.0

Latest

Satellite identification and parameters

Extended collection of information and parameters for COSMOS 2190.

Object identification

Identified? True

Debris? False

Object name: COSMOS 2190

International designator: 1992-030D

Object number (NORAD): 21979

Object ID (CCSDS): 21979

Country: COMMONWEALTH OF INDEPENDENT STATES (CIS)

Current information (Y/N): Y

RCS size: MEDIUM

Orbital parameters

Period: 114.99 minutes

Inclination: 74.0013 deg

SMA: 7833.104 km

Apoapsis: 1479.235 km

Periapsis: 1430.703 km

RAAN: 162.0824 deg

Eccentricy: 0.0030979

Argument of periapsis: 90.3463 deg

Mean anomaly: 340.1609 deg

Mean motion: 12.5228137 rev/day

Mean motion (dot): 0.00000001 rev/day2

B* drag term: 0.00010908 1/REarth

Two-line elements (TLE)

Creation date: Oct. 31, 2025, 11:06 p.m.

Reference frame: TEME

Reference center: EARTH

Epoch: Oct. 31, 2025, 6:18 p.m. UTC

TLE line 0: 0 COSMOS 2190

TLE line 1: 1 21979U 92030D 25304.76298475 .00000001 00000-0 10908-3 0 9996

TLE line 2: 2 21979 74.0013 162.0824 0030979 90.3463 340.1609 12.52281370527357

Live tracking on map

Real-time ground track for satellite COSMOS 2190.

In-orbit conjunctions

There are no conjunctions computed for COSMOS 2190, at the moment. Check back to stay up to date, as we update our databases every day.

Go to all conjunctions

Associated space launch

Military communications satellites

COSMOS 2190 was lifted into orbit during the mission ‘Kosmos-3M | Strela-1M 361-368’, on board a Kosmos-3M space rocket.

The launch took place on June 3, 1992, 12:50 a.m. from 133/3 (133L).

For more information about the launch, click the button.

Launch to space Kosmos-3M | Strela-1M 361-368
Kosmos-3M | Strela-1M 361-368

Agency: N/A

Status: Launch Successful

Launch date: June 3, 1992, 12:50 a.m. UTC

Rocket: Kosmos-3M

Launch pad: 133/3 (133L)

Location: Plesetsk Cosmodrome, Russian Federation

...

Latest news about this satellite

There are no fresh news available about this satellite. Check back as we update our databases every day.


Newsletter sign-up

Weekly statistics, charts and insights to help you stay on top of the space industry.